sat.trackr.live / text

‹ back to catalog

ONEWEB-0555

NORAD 56057 · 2023-043M

PAYLOAD ACTIVE UNKNOWN

§ Identity

Operator
Country
UK
Launch date
2023-03-26
Launch site
SRILR
Launch vehicle
Mass (kg)
RCS (m²)

Purposes: comms

External: N2YO · Heavens-Above · Gunter

§ Orbital elements

Epoch: 2026-09-19T16:06:56.402496Z

Period
109.37 min
Inclination
87.9152°
Eccentricity
0.0001908
Mean motion
13.16593560 rev/d
Perigee alt
1,196.3 km
Apogee alt
1,199.2 km
Semi-major
7,575.9 km
B*
-4.3109e-5
RAAN
210.0133°
Arg perigee
93.0492°
Mean anomaly
267.0858°
Rev number
17,139

§ Raw data

ONEWEB-05551 56057U 23043M   26262.67148614 -.00000004  00000+0 -43109-4 0  99962 56057  87.9152 210.0133 0001908  93.0492 267.0858 13.16593560171398

JSON: /api/v1/satellites/56057 · /tle

For live sub-satellite position, see the globe view (requires WebGL).

§ Visibility from observer

Set your observer location to see the next 7 days of passes ≥ 10°. The values pass through the URL so the page stays shareable.

No JS? Fill the form by hand. The geolocation button needs JavaScript.